Location: Hebron
(33.0265°N, 96.8636°W)
Time: 01:09:32
(UTC+00:00)

Cosmos 1812 - Pass Details

Date: 06 July 2022
Orbit: 508 x 515 km, 82.5° (Epoch: 08 August)

Event Time Altitude Azimuth Distance (km) Brightness Sun altitude
Rises 07:18:02 0° 359° (N) 2,628 7.3 -33.2°
Reaches altitude 10° 07:20:12 10° 3° (N) 1,737 6.2 -33.1°
Enters shadow 07:21:05 16° 7° (N) 1,389 5.6 -33.1°
